When you browse on this site, cookies collect data to enhance your experience and personalize the content and advertising you see.
Visit our Privacy Policy to learn more. By continuing to use the site, you agree to this use of cookies and data.

Hourly Weather Zasadky

Today, 14 July, Tuesday

Time Temperature Precipitation Wind Pressure Humidity
00:00 +10°C° 0 mm 1 mps 735 mmHg 93%
01:00 +10°C° 0 mm 1 mps 735 mmHg 93%
02:00 +10°C° 0 mm 1 mps 735 mmHg 94%
03:00 +10°C° 0 mm 1 mps 735 mmHg 94%
04:00 +10°C° 0 mm 1 mps 734 mmHg 94%
05:00 +9°C° 0 mm 1 mps 734 mmHg 94%
06:00 +11°C° 0 mm 1 mps 734 mmHg 90%
07:00 +13°C° 0 mm 1 mps 734 mmHg 85%
08:00 +15°C° 0 mm 1 mps 734 mmHg 81%
09:00 +17°C° 0 mm 2 mps 734 mmHg 76%
10:00 +18°C° 0 mm 2 mps 734 mmHg 71%
11:00 +19°C° 0 mm 2 mps 734 mmHg 65%
12:00 +20°C° 0.1 mm 2 mps 733 mmHg 64%
13:00 +20°C° 0.1 mm 2 mps 733 mmHg 62%
14:00 +21°C° 0.1 mm 2 mps 733 mmHg 60%
15:00 +21°C° 0.1 mm 2 mps 733 mmHg 62%
16:00 +21°C° 0.1 mm 2 mps 732 mmHg 64%
17:00 +21°C° 0.1 mm 2 mps 732 mmHg 66%
18:00 +19°C° 0.2 mm 2 mps 732 mmHg 74%
19:00 +19°C° 0.2 mm 1 mps 732 mmHg 82%
20:00 +16°C° 0.2 mm 1 mps 732 mmHg 90%
21:00 +15°C° 0 mm 1 mps 732 mmHg 91%
22:00 +14°C° 0 mm 1 mps 732 mmHg 92%
23:00 +13°C° 0 mm 1 mps 732 mmHg 93%

Tomorrow, 15 July, Wednesday

Time Temperature Precipitation Wind Pressure Humidity
00:00 +12°C° 0 mm 0 mps 732 mmHg 93%
01:00 +12°C° 0 mm 0 mps 732 mmHg 93%
02:00 +11°C° 0 mm 0 mps 732 mmHg 93%
03:00 +11°C° 0 mm 0 mps 732 mmHg 93%
04:00 +11°C° 0 mm 0 mps 732 mmHg 93%
05:00 +12°C° 0 mm 1 mps 732 mmHg 93%
06:00 +14°C° 0 mm 1 mps 732 mmHg 89%
07:00 +15°C° 0 mm 0 mps 732 mmHg 84%
08:00 +17°C° 0 mm 0 mps 732 mmHg 80%
09:00 +20°C° 0 mm 1 mps 732 mmHg 73%
10:00 +22°C° 0 mm 1 mps 732 mmHg 66%
11:00 +24°C° 0 mm 1 mps 732 mmHg 59%
12:00 +24°C° 0.1 mm 1 mps 732 mmHg 60%
13:00 +24°C° 0.1 mm 1 mps 732 mmHg 61%
14:00 +24°C° 0.1 mm 1 mps 732 mmHg 62%
15:00 +24°C° 0.4 mm 1 mps 731 mmHg 64%
16:00 +24°C° 0.4 mm 2 mps 731 mmHg 66%
17:00 +23°C° 0.4 mm 2 mps 731 mmHg 69%
18:00 +21°C° 0.2 mm 2 mps 731 mmHg 74%
19:00 +19°C° 0.2 mm 2 mps 731 mmHg 78%
20:00 +18°C° 0.2 mm 2 mps 731 mmHg 83%
21:00 +17°C° 0 mm 2 mps 731 mmHg 85%
22:00 +16°C° 0 mm 2 mps 731 mmHg 88%
23:00 +15°C° 0 mm 2 mps 731 mmHg 90%

Day after tomorrow, 16 July, Thursday

Time Temperature Precipitation Wind Pressure Humidity
00:00 +15°C° 0 mm 2 mps 731 mmHg 89%
01:00 +14°C° 0 mm 2 mps 730 mmHg 89%
02:00 +14°C° 0 mm 2 mps 730 mmHg 89%
03:00 +14°C° 0 mm 2 mps 730 mmHg 89%
04:00 +14°C° 0 mm 2 mps 730 mmHg 88%
05:00 +14°C° 0 mm 2 mps 730 mmHg 88%
06:00 +16°C° 0 mm 2 mps 730 mmHg 83%
07:00 +18°C° 0 mm 2 mps 730 mmHg 79%
08:00 +20°C° 0 mm 2 mps 730 mmHg 74%
09:00 +21°C° 0.2 mm 2 mps 730 mmHg 72%
10:00 +23°C° 0.2 mm 2 mps 730 mmHg 70%
11:00 +23°C° 0.2 mm 2 mps 730 mmHg 67%
12:00 +22°C° 1 mm 3 mps 730 mmHg 73%
13:00 +21°C° 1 mm 3 mps 730 mmHg 78%
14:00 +20°C° 1 mm 4 mps 730 mmHg 84%
15:00 +20°C° 0.4 mm 3 mps 730 mmHg 84%
16:00 +19°C° 0.4 mm 2 mps 729 mmHg 85%
17:00 +19°C° 0.4 mm 2 mps 729 mmHg 86%
18:00 +19°C° 0.3 mm 1 mps 729 mmHg 88%
19:00 +19°C° 0.3 mm 1 mps 730 mmHg 90%
20:00 +18°C° 0.3 mm 1 mps 730 mmHg 92%
21:00 +16°C° 0.1 mm 1 mps 730 mmHg 92%
22:00 +16°C° 0.1 mm 1 mps 730 mmHg 93%
23:00 +15°C° 0.1 mm 1 mps 730 mmHg 94%

17 July, Friday

Time Temperature Precipitation Wind Pressure Humidity
00:00 +15°C° 0 mm 1 mps 730 mmHg 94%
01:00 +15°C° 0 mm 1 mps 730 mmHg 95%
02:00 +14°C° 0 mm 2 mps 730 mmHg 95%
03:00 +14°C° 0 mm 2 mps 730 mmHg 95%
04:00 +14°C° 0 mm 2 mps 730 mmHg 95%
05:00 +14°C° 0 mm 2 mps 730 mmHg 95%
06:00 +14°C° 0.1 mm 1 mps 730 mmHg 94%
07:00 +14°C° 0.1 mm 1 mps 730 mmHg 92%
08:00 +15°C° 0.1 mm 1 mps 731 mmHg 91%
09:00 +15°C° 0.4 mm 1 mps 731 mmHg 88%
10:00 +16°C° 0.4 mm 1 mps 731 mmHg 84%
11:00 +18°C° 0.4 mm 1 mps 731 mmHg 81%
12:00 +19°C° 0.1 mm 1 mps 731 mmHg 75%
13:00 +20°C° 0.1 mm 1 mps 731 mmHg 69%
14:00 +22°C° 0.1 mm 1 mps 731 mmHg 63%
15:00 +21°C° 0.2 mm 1 mps 731 mmHg 65%
16:00 +21°C° 0.2 mm 1 mps 731 mmHg 67%
17:00 +21°C° 0.2 mm 1 mps 730 mmHg 69%
18:00 +19°C° 0.2 mm 1 mps 730 mmHg 76%
19:00 +18°C° 0.2 mm 1 mps 730 mmHg 82%
20:00 +16°C° 0.2 mm 1 mps 730 mmHg 89%
21:00 +15°C° 0.1 mm 1 mps 730 mmHg 91%
22:00 +14°C° 0.1 mm 1 mps 731 mmHg 92%
23:00 +13°C° 0.1 mm 1 mps 731 mmHg 93%

18 July, Saturday

Time Temperature Precipitation Wind Pressure Humidity
00:00 +13°C° 0 mm 1 mps 731 mmHg 94%
01:00 +12°C° 0 mm 1 mps 731 mmHg 94%
02:00 +12°C° 0 mm 1 mps 731 mmHg 95%
03:00 +12°C° 0 mm 1 mps 731 mmHg 95%
04:00 +11°C° 0 mm 1 mps 731 mmHg 96%
05:00 +11°C° 0 mm 1 mps 731 mmHg 96%
06:00 +12°C° 0 mm 1 mps 731 mmHg 95%
07:00 +14°C° 0 mm 1 mps 731 mmHg 93%
08:00 +15°C° 0 mm 2 mps 732 mmHg 92%
09:00 +16°C° 0.1 mm 2 mps 731 mmHg 89%
10:00 +16°C° 0.1 mm 2 mps 731 mmHg 86%
11:00 +17°C° 0.1 mm 2 mps 731 mmHg 83%
12:00 +18°C° 0 mm 2 mps 731 mmHg 77%
13:00 +19°C° 0 mm 2 mps 731 mmHg 72%
14:00 +21°C° 0 mm 2 mps 731 mmHg 67%
15:00 +20°C° 0.2 mm 2 mps 731 mmHg 69%
16:00 +20°C° 0.2 mm 2 mps 731 mmHg 71%
17:00 +20°C° 0.2 mm 2 mps 730 mmHg 72%
18:00 +19°C° 0.3 mm 2 mps 730 mmHg 78%
19:00 +19°C° 0.3 mm 1 mps 730 mmHg 84%
20:00 +18°C° 0.3 mm 1 mps 730 mmHg 90%
21:00 +16°C° 0.1 mm 1 mps 731 mmHg 91%
22:00 +15°C° 0.1 mm 1 mps 731 mmHg 92%
23:00 +15°C° 0.1 mm 1 mps 731 mmHg 93%

19 July, Sunday

Time Temperature Precipitation Wind Pressure Humidity
00:00 +14°C° 0 mm 1 mps 731 mmHg 94%
01:00 +14°C° 0 mm 1 mps 731 mmHg 95%
02:00 +14°C° 0 mm 1 mps 731 mmHg 95%
03:00 +14°C° 0 mm 1 mps 731 mmHg 96%
04:00 +14°C° 0 mm 1 mps 731 mmHg 96%
05:00 +13°C° 0 mm 1 mps 731 mmHg 96%
06:00 +15°C° 0 mm 1 mps 731 mmHg 95%
07:00 +16°C° 0 mm 1 mps 731 mmHg 93%
08:00 +17°C° 0 mm 2 mps 731 mmHg 92%
09:00 +17°C° 0.3 mm 2 mps 731 mmHg 91%
10:00 +18°C° 0.3 mm 2 mps 732 mmHg 89%
11:00 +19°C° 0.3 mm 2 mps 732 mmHg 88%
12:00 +19°C° 0.7 mm 2 mps 731 mmHg 86%
13:00 +19°C° 0.7 mm 2 mps 731 mmHg 85%
14:00 +20°C° 0.7 mm 2 mps 731 mmHg 83%
15:00 +20°C° 0.2 mm 2 mps 731 mmHg 82%
16:00 +20°C° 0.2 mm 2 mps 731 mmHg 80%
17:00 +21°C° 0.2 mm 1 mps 731 mmHg 78%
18:00 +20°C° 0.1 mm 1 mps 730 mmHg 82%
19:00 +19°C° 0.1 mm 1 mps 730 mmHg 86%
20:00 +18°C° 0.1 mm 1 mps 730 mmHg 91%
21:00 +16°C° 0 mm 1 mps 730 mmHg 92%
22:00 +16°C° 0 mm 1 mps 731 mmHg 93%
23:00 +14°C° 0 mm 0 mps 731 mmHg 94%
Show more